WS6A-13 Weather Reports


time (UTC)temp
F
wind
direction
speed
knots
gust
knots
rain 1hr
in
rain 24hr
in
rain mn
in
humidity
%
barometer
mb
20260503203003 60 244 0.0 2.6 0.00 0.00 0.00 45 1014.8
20260503201504 60 221 0.9 5.2 0.00 0.00 0.00 45 1014.6
20260503194504 62 273 0.9 6.1 0.00 0.00 0.00 41 1014.9
20260503193004 62 218 0.0 2.6 0.00 0.00 0.00 47 1015.3
20260503183004 62 288 0.0 5.2 0.00 0.00 0.00 44 1016.1
20260503181517 63 217 1.7 4.3 0.00 0.00 0.00 47 1016.4
20260503180004 62 209 1.7 7.0 0.00 0.00 0.00 52 1016.5
20260503174503 61 11 0.9 2.6 0.00 0.00 0.00 45 1016.6
20260503173004 61 214 1.7 5.2 0.00 0.00 0.00 48 1017.1
20260503081504 34 16 0.0 0.0 0.00 0.00 0.00 87 1017.6
20260503071504 34 16 0.0 0.0 0.00 0.00 0.00 87 1017.5
20260503054504 36 16 0.0 0.0 0.00 0.00 0.00 84 1017.9
20260503053003 36 16 0.0 0.0 0.00 0.00 0.00 83 1017.9
20260503050004 36 16 0.0 0.0 0.00 0.00 0.00 83 1017.9
20260503044504 36 16 0.0 0.0 0.00 0.00 0.00 82 1017.9
20260503043004 37 16 0.0 0.0 0.00 0.00 0.00 83 1017.9
20260503040004 37 16 0.0 0.0 0.00 0.00 0.00 83 1017.9
20260503034504 37 16 0.0 0.0 0.00 0.00 0.00 81 1017.9
20260503033004 38 16 0.0 0.0 0.00 0.00 0.00 80 1017.9
20260503031504 38 16 0.0 0.0 0.00 0.00 0.00 78 1017.9
20260503030004 38 16 0.0 0.0 0.00 0.00 0.00 76 1018.0
20260503024504 39 16 0.0 0.0 0.00 0.00 0.00 77 1018.0
20260503023003 39 16 0.0 0.0 0.00 0.00 0.00 74 1018.0
20260503021503 40 16 0.0 0.0 0.00 0.00 0.00 73 1018.0
20260503014504 42 16 0.0 0.0 0.00 0.00 0.00 71 1017.8
20260503013004 43 16 0.0 0.0 0.00 0.00 0.00 68 1017.6
20260503011503 44 16 0.0 0.0 0.00 0.00 0.00 66 1017.5
20260503010004 45 16 0.0 0.0 0.00 0.00 0.00 64 1017.3
20260503004504 46 16 0.0 0.0 0.00 0.00 0.00 62 1017.2
20260503003004 47 16 0.0 0.0 0.00 0.00 0.00 60 1017.3
20260503001504 47 46 0.0 2.6 0.00 0.00 0.00 57 1017.1
20260503000004 48 84 0.0 5.2 0.00 0.00 0.00 58 1017.0
20260502231504 49 39 0.9 7.8 0.00 0.00 0.00 52 1016.8
20260502230004 50 30 0.0 4.3 0.00 0.00 0.00 53 1016.7
20260502224504 50 5 0.0 4.3 0.00 0.00 0.00 52 1016.6
20260502223004 51 35 0.0 1.7 0.00 0.00 0.00 51 1016.6
20260502221504 51 47 0.0 6.1 0.00 0.00 0.00 50 1016.5
20260502220003 51 23 0.0 7.0 0.00 0.00 0.00 50 1016.4
20260502214504 51 32 0.9 2.6 0.00 0.00 0.00 49 1016.3
20260502210004 52 214 0.9 7.0 0.00 0.00 0.00 50 1016.1